Regional Weather Roundup
Issued by NWS Goodland, KS

Home | Current Version | Previous Version | Text Only | Print | Product List | Glossary On
Versions: 1 2 3 4 5 6 7 8 9 10 11 12 13 14 15 16 17 18 19 20 21 22 23 24 25 26 27 28 29 30 31 32 33 34 35 36 37 38 39 40 41 42 43 44 45 46 47 48 49 50
000
ASUS43 KGLD 010408
RWRGLD

GOODLAND FORECAST AREA HOURLY WEATHER ROUNDUP
NATIONAL WEATHER SERVICE GOODLAND KS
1000 PM MDT FRI JUL 31 2015

...OFFICIAL OBSERVATIONS...

CITY           SKY/WX    TMP DP  RH WIND       PRES   REMARKS
GOODLAND KS    CLEAR     74  56  53 S14       30.19R
HILL CITY KS   CLEAR     78  62  57 S6        30.12R
IMPERIAL NEB   CLEAR     72  59  63 S3        30.14R
MCCOOK NEB     CLEAR     79  61  53 S6        30.11R
AKRON CO       CLEAR     74  56  53 S12       30.23R
BURLINGTON CO  CLEAR     69  57  65 S8        30.24R
LIMON CO       PTCLDY    65  53  65 SE7       30.30R
$$

...UNOFFICIAL OBSERVATIONS...

CITY           SKY/WX    TMP DP  RH WIND       PRES   REMARKS
COLBY KS       CLEAR     79  64  61 S14       30.18R
NORTON KS      CLEAR     79  55  44 SE8       30.11
SHARON SPRINGS   N/A     69  61  77 N7          N/A
KIT CARSON CO    N/A     69  55  60 MISG        N/A
YUMA CO          N/A     71  60  69 SW8         N/A
$$



USA.gov is the U.S. government's official web portal to all federal, state and local government web resources and services.